Regional Weather Roundup
Issued by NWS

Home | Current Version | Previous Version | Text Only | Print | Product List | Glossary Off
Versions: 1 2 3 4 5 6 7 8 9 10 11 12 13 14 15 16 17 18 19 20 21 22 23 24 25 26 27 28 29 30 31 32 33 34 35 36 37 38 39 40 41 42 43 44 45 46 47 48 49

000
ASUS45 KTFX 240410
RWRMT
MONTANA REGIONAL WEATHER ROUNDUP
NATIONAL WEATHER SERVICE GREAT FALLS MT
1000 PM MDT WED AUG 23 2017

NOTE: "FAIR" INDICATES FEW OR NO CLOUDS BELOW 12000 FEET WITH NO
SIGNIFICANT WEATHER AND/OR OBSTRUCTIONS TO VISIBILITY.

MTZ001>007-043-240500-
WEST OF THE DIVIDE

CITY           SKY/WX    TMP DP  RH WIND       PRES   REMARKS
KALISPELL      PTCLDY    73  39  29 S6        29.89R
MISSOULA       MOCLDY    74  43  32 N5        29.94S HAZE
BUTTE          MOCLDY    73  35  25 CALM      30.10R
MULLAN PASS    CLOUDY    63  39  41 SW5       30.13S
ANACONDA         N/A     73  36  25 W3        30.05S
DEER LODGE       N/A     72  39  30 NW3       30.05S
EUREKA           N/A     81  39  22 MISG      29.88S
HAMILTON         N/A     70  46  43 W5        29.98R
LIBBY            N/A     79  45  29 CALM      29.88R
PLAINS           N/A     79  45  29 CALM      29.93R
RONAN            N/A     69  53  56 E2        29.99R
$$

MTZ008-052>055-240500-
SOUTHWEST MONTANA

CITY           SKY/WX    TMP DP  RH WIND       PRES   REMARKS
BOZEMAN        CLOUDY    69  43  38 SE6       30.02R
DILLON         CLOUDY    65  42  43 SE3       30.07R
W YELLOWSTONE  CLOUDY    63  46  55 S21G28    30.25R
ENNIS          CLOUDY    68  41  37 S12       30.15S
THREE FORKS      N/A     79  43  27 S7        29.99R
TWIN BRIDGES     N/A     70  39  32 CALM      30.06R
$$

MTZ009-010-012-014-046-048-049-054-240500-
EAST SLOPES AND CENTRAL MONTANA

CITY           SKY/WX    TMP DP  RH WIND       PRES   REMARKS
CUT BANK       MOCLDY    72  37  28 W12       29.92R
GREAT FALLS    PTCLDY    74  35  24 N3        29.93R
MALMSTROM AFB  PTCLDY    77  37  23 CALM      29.91R
HELENA         CLOUDY    82  38  20 SW7       29.94S
AUGUSTA          N/A     76  34  22 NW12      29.98
BOWMANS CRNR     N/A     73  34  24 NW12      29.95S
CHOTEAU          N/A     75  36  23 W8        29.96R
FAIRFIELD      MOCLDY    75  33  21 CALM      29.93
POWER            N/A     65  31  27 N5        29.93R
RAYNESFORD       N/A     67  36  32 CALM      29.96R
ULM              N/A     70  36  28 CALM      29.92R
$$

MTZ011-013-016-021-045-047-050-051-240500-
NORTH CENTRAL MONTANA

CITY           SKY/WX    TMP DP  RH WIND       PRES   REMARKS
HAVRE          PTCLDY    75  36  24 SE5       29.83S
LEWISTOWN      CLOUDY    67  37  33 E7        29.97S
N BAR RANCH      N/A     63  34  34 NW5       30.03S
CHINOOK          N/A     75  43  31 E7        29.82S
DENTON           N/A     74  33  22 S14       29.89S
GEYSER           N/A     75  33  21 S15       29.95S
GRASS RANGE      N/A     68  34  28 W8        29.93S
JUDITH GAP       N/A     71  34  26 SW10      30.01R
WINIFRED       MOCLDY    74  32  21 SE14      29.92S
$$

MTZ017>020-022>027-061-062-240500-
NORTHEAST MONTANA

CITY           SKY/WX    TMP DP  RH WIND       PRES   REMARKS
GLASGOW        CLEAR     76  39  26 E15       29.87R
JORDAN           N/A     76  35  22 SE3       29.88R
SIDNEY         CLEAR     67  47  48 SW5       29.91R
WOLF POINT     CLEAR     76  41  28 E12       29.90R
MALTA          CLEAR     70  43  37 NE8       29.85S
PLENTYWOOD       N/A     68  52  56 E20       29.95S
POPLAR           N/A     73  43  33 E9        29.91R
SCOBEY           N/A     71  43  36 E17       29.93S
$$

MTZ028>42-056>058-240500-
SOUTHCENTRAL AND SOUTHEAST MONTANA

CITY           SKY/WX    TMP DP  RH WIND       PRES   REMARKS
BAKER          CLEAR     65  41  41 SE7       29.97R
BILLINGS       MOCLDY    81  34  18 E3        29.93R
LIVINGSTON     PTCLDY    78  38  23 SW16      30.00S
MILES CITY     CLEAR     77  37  23 E8        29.89R
BIG TIMBER     CLEAR     75  39  27 W10       30.03R
EKALAKA          N/A     72  45  37 SE10      29.97R
HARLOWTON        N/A     76  32  19 MISG      29.99R
LAUREL           N/A     74  35  24 W3        29.93R
$$

REGIONAL REPORTS...DAKOTAS

CITY           SKY/WX    TMP DP  RH WIND       PRES   REMARKS
WILLISTON      CLEAR     72  50  45 E16G25    29.93R
MINOT          CLEAR     62  53  72 NE12      29.99R
DICKINSON      CLEAR     63  54  72 S10       29.95R
BEACH            N/A     64  43  45 SE9       29.99R
CROSBY           N/A     61  55  82 E15G22    30.00R
TIOGA            N/A     63  54  72 E12       30.00R
WATFORD CITY     N/A     70  54  56 E15       29.93R
BISMARCK       CLEAR     62  57  83 SE6       29.95S
GRAND FORKS    MOCLDY    57  55  93 E6        30.07S
FARGO          MOCLDY    63  50  62 E21G28    30.05R
BUFFALO SD       N/A     71  53  52 E10       29.92R
RAPID CITY     CLEAR     73  54  51 E10       29.98R
$$

REGIONAL REPORTS...WYOMING/IDAHO/WASHINGTON

CITY           SKY/WX    TMP DP  RH WIND       PRES   REMARKS
GILLETTE       CLEAR     74  42  31 SE9       30.00S
SHERIDAN       PTCLDY    66  43  43 SW3       29.98R
BUFFALO WY     PTCLDY    76  32  20 NW7       30.06R
CODY           CLOUDY    74  42  31 SW9       30.07S
YELLOWSTONE LA   N/A     50  50 100 CALM      30.33F
IDAHO FALLS    CLOUDY    69  47  45 SE5       30.13R
SALMON         CLOUDY    74  49  41 VRB3      29.97R
BOISE          MOCLDY    76  51  41 SE7       29.95R
SPOKANE        LGT RAIN  74  49  41 S5        29.91S
$$

REGIONAL REPORTS...ALBERTA

CITY           SKY/WX    TMP DP  RH WIND       PRES   REMARKS
EDMONTON       MOCLDY    66  59  77 N3        29.81S
CALGARY        PTCLDY    75  43  31 SE12      29.80F
LETHBRIDGE     CLEAR     66  39  37 SW12      29.82R SMOKE
MEDICINE HAT   CLEAR     70  50  49 S3        29.78R
$$

REGIONAL REPORTS...SASKATCHEWAN

CITY           SKY/WX    TMP DP  RH WIND       PRES   REMARKS
SWIFT CURRENT  CLEAR     66  45  45 E15       29.91S
REGINA         PTCLDY    64  52  63 E18G24    30.01R
SASKATOON      PTCLDY    64  52  63 E14       29.97F
$$



USA.gov is the U.S. government's official web portal to all federal, state and local government web resources and services.